TimeCST,TemperatureF,Dew PointF,Humidity,Sea Level PressureIn,VisibilityMPH,Wind Direction,Wind SpeedMPH,Gust SpeedMPH,PrecipitationIn,Events,Conditions,WindDirDegrees,DateUTC
12:13 AM,35.6,33.8,93,29.91,5.0,NW,5.8,-,N/A,,Overcast,310,2012-11-07 06:13:00
12:33 AM,35.6,33.8,93,29.91,5.0,NW,6.9,-,N/A,,Overcast,310,2012-11-07 06:33:00
12:53 AM,35.6,33.8,93,29.93,3.0,WNW,5.8,-,N/A,,Overcast,290,2012-11-07 06:53:00
1:13 AM,35.6,33.8,93,29.92,2.5,NW,6.9,-,N/A,,Overcast,310,2012-11-07 07:13:00
1:33 AM,35.6,33.8,93,29.93,3.0,WNW,5.8,-,N/A,,Overcast,300,2012-11-07 07:33:00
1:53 AM,35.6,33.8,93,29.94,2.0,WNW,5.8,-,N/A,,Overcast,300,2012-11-07 07:53:00
2:13 AM,35.6,33.8,93,29.94,1.5,WNW,4.6,-,N/A,,Overcast,300,2012-11-07 08:13:00
2:53 AM,33.8,33.8,100,29.95,1.0,WNW,5.8,-,N/A,,Overcast,300,2012-11-07 08:53:00
3:13 AM,33.8,32.0,93,29.95,1.0,WNW,6.9,-,N/A,,Overcast,290,2012-11-07 09:13:00
3:33 AM,33.8,32.0,93,29.95,1.2,WNW,4.6,-,N/A,,Overcast,290,2012-11-07 09:33:00
3:53 AM,33.8,32.0,93,29.96,2.5,WNW,4.6,-,N/A,,Overcast,300,2012-11-07 09:53:00
4:13 AM,33.8,32.0,93,29.96,3.0,WNW,4.6,-,N/A,,Overcast,300,2012-11-07 10:13:00
4:33 AM,33.8,32.0,93,29.96,1.8,WNW,4.6,-,N/A,,Overcast,290,2012-11-07 10:33:00
4:53 AM,33.8,32.0,93,29.97,1.5,WNW,3.5,-,N/A,,Overcast,300,2012-11-07 10:53:00
5:13 AM,33.8,32.0,93,29.97,1.5,Calm,Calm,-,N/A,,Overcast,0,2012-11-07 11:13:00
5:33 AM,33.8,32.0,93,29.98,2.5,WNW,3.5,-,N/A,,Overcast,290,2012-11-07 11:33:00
5:53 AM,33.8,32.0,93,29.98,7.0,West,3.5,-,N/A,,Overcast,280,2012-11-07 11:53:00
6:13 AM,33.8,32.0,93,29.98,7.0,WNW,3.5,-,N/A,,Overcast,290,2012-11-07 12:13:00
6:33 AM,33.8,32.0,93,29.98,7.0,West,3.5,-,N/A,,Overcast,280,2012-11-07 12:33:00
6:53 AM,33.8,32.0,93,29.99,7.0,WNW,4.6,-,N/A,,Overcast,300,2012-11-07 12:53:00
7:13 AM,33.8,32.0,93,30.00,5.0,WNW,4.6,-,N/A,,Overcast,290,2012-11-07 13:13:00
7:33 AM,33.8,32.0,93,30.01,10.0,WNW,3.5,-,N/A,,Overcast,290,2012-11-07 13:33:00
7:53 AM,33.8,32.0,93,30.01,10.0,WNW,4.6,-,N/A,,Overcast,290,2012-11-07 13:53:00
8:13 AM,33.8,32.0,93,30.02,10.0,West,4.6,-,N/A,,Mostly Cloudy,280,2012-11-07 14:13:00
8:33 AM,33.8,32.0,93,30.02,7.0,Calm,Calm,-,N/A,,Overcast,0,2012-11-07 14:33:00
8:53 AM,33.8,32.0,93,30.02,7.0,West,3.5,-,N/A,,Overcast,280,2012-11-07 14:53:00
9:13 AM,33.8,32.0,93,30.02,7.0,West,3.5,-,N/A,,Overcast,280,2012-11-07 15:13:00
9:33 AM,33.8,32.0,93,30.03,10.0,WNW,3.5,-,N/A,,Overcast,300,2012-11-07 15:33:00
9:53 AM,33.8,33.8,100,30.03,10.0,WNW,3.5,-,N/A,,Mostly Cloudy,300,2012-11-07 15:53:00
10:13 AM,35.6,33.8,93,30.02,10.0,Calm,Calm,-,N/A,,Scattered Clouds,0,2012-11-07 16:13:00
10:33 AM,35.6,33.8,93,30.02,10.0,Calm,Calm,-,N/A,,Clear,0,2012-11-07 16:33:00
10:53 AM,35.6,33.8,93,30.02,10.0,Calm,Calm,-,N/A,,Clear,0,2012-11-07 16:53:00
11:13 AM,35.6,33.8,93,30.02,10.0,Calm,Calm,-,N/A,,Clear,0,2012-11-07 17:13:00
11:33 AM,35.6,33.8,93,30.01,10.0,Calm,Calm,-,N/A,,Scattered Clouds,0,2012-11-07 17:33:00
11:53 AM,35.6,32.0,87,30.01,10.0,Calm,Calm,-,N/A,,Scattered Clouds,0,2012-11-07 17:53:00
12:13 PM,35.6,33.8,93,30.01,10.0,Calm,Calm,-,N/A,,Scattered Clouds,0,2012-11-07 18:13:00
12:33 PM,37.4,33.8,87,30.01,10.0,Calm,Calm,-,N/A,,Scattered Clouds,0,2012-11-07 18:33:00
12:53 PM,37.4,33.8,87,30.00,10.0,Calm,Calm,-,N/A,,Mostly Cloudy,0,2012-11-07 18:53:00
1:13 PM,37.4,33.8,87,30.00,10.0,West,3.5,-,N/A,,Mostly Cloudy,270,2012-11-07 19:13:00
1:33 PM,37.4,33.8,87,29.99,10.0,Calm,Calm,-,N/A,,Mostly Cloudy,0,2012-11-07 19:33:00
1:53 PM,37.4,32.0,81,29.99,10.0,Calm,Calm,-,N/A,,Overcast,0,2012-11-07 19:53:00
2:13 PM,37.4,32.0,81,29.99,10.0,Calm,Calm,-,N/A,,Overcast,0,2012-11-07 20:13:00
2:33 PM,37.4,33.8,87,29.98,10.0,Calm,Calm,-,N/A,,Mostly Cloudy,0,2012-11-07 20:33:00
2:53 PM,37.4,32.0,81,29.98,10.0,Calm,Calm,-,N/A,,Mostly Cloudy,0,2012-11-07 20:53:00
3:13 PM,37.4,33.8,87,29.99,10.0,Calm,Calm,-,N/A,,Overcast,0,2012-11-07 21:13:00
3:38 PM,37.4,32.0,81,29.99,10.0,Calm,Calm,-,N/A,,Mostly Cloudy,0,2012-11-07 21:38:00
3:53 PM,35.6,32.0,87,30.00,10.0,South,4.6,-,N/A,,Drizzle,190,2012-11-07 21:53:00
4:13 PM,35.6,32.0,87,30.00,10.0,Calm,Calm,-,N/A,,Light Drizzle,0,2012-11-07 22:13:00
4:33 PM,35.6,32.0,87,30.01,10.0,Calm,Calm,-,N/A,,Mostly Cloudy,0,2012-11-07 22:33:00
4:53 PM,35.6,32.0,87,30.00,10.0,Calm,Calm,-,N/A,,Overcast,0,2012-11-07 22:53:00
5:13 PM,33.8,32.0,93,29.99,10.0,Calm,Calm,-,N/A,,Mostly Cloudy,0,2012-11-07 23:13:00
5:33 PM,33.8,30.2,87,30.00,10.0,Calm,Calm,-,N/A,,Scattered Clouds,0,2012-11-07 23:33:00
5:53 PM,33.8,32.0,93,29.99,10.0,SE,3.5,-,N/A,,Mostly Cloudy,130,2012-11-07 23:53:00
6:13 PM,33.8,32.0,93,29.98,10.0,Calm,Calm,-,N/A,,Mostly Cloudy,0,2012-11-08 00:13:00
6:33 PM,33.8,32.0,93,29.98,10.0,Calm,Calm,-,N/A,,Scattered Clouds,0,2012-11-08 00:33:00
6:53 PM,33.8,32.0,93,29.97,10.0,SE,3.5,-,N/A,,Mostly Cloudy,130,2012-11-08 00:53:00
7:13 PM,33.8,32.0,93,29.97,10.0,SE,3.5,-,N/A,,Scattered Clouds,130,2012-11-08 01:13:00
7:33 PM,33.8,32.0,93,29.96,10.0,SE,4.6,-,N/A,,Clear,130,2012-11-08 01:33:00
7:53 PM,33.8,32.0,93,29.95,10.0,SE,4.6,-,N/A,,Scattered Clouds,130,2012-11-08 01:53:00
8:13 PM,33.8,32.0,93,29.95,10.0,SE,4.6,-,N/A,,Mostly Cloudy,130,2012-11-08 02:13:00
8:33 PM,33.8,32.0,93,29.96,10.0,SE,4.6,-,N/A,,Overcast,140,2012-11-08 02:33:00
8:53 PM,35.6,32.0,87,29.96,10.0,SE,4.6,-,N/A,,Overcast,140,2012-11-08 02:53:00
9:13 PM,35.6,32.0,87,29.97,10.0,SSE,3.5,-,N/A,,Overcast,150,2012-11-08 03:13:00
9:33 PM,35.6,32.0,87,29.96,10.0,SE,4.6,-,N/A,,Overcast,130,2012-11-08 03:33:00
9:53 PM,35.6,32.0,87,29.95,10.0,SE,5.8,-,N/A,,Mostly Cloudy,130,2012-11-08 03:53:00
10:13 PM,33.8,32.0,93,29.94,7.0,SE,6.9,-,N/A,Snow,Light Snow,140,2012-11-08 04:13:00
10:33 PM,33.8,32.0,93,29.93,10.0,SE,6.9,-,N/A,,Mostly Cloudy,130,2012-11-08 04:33:00
10:53 PM,33.8,32.0,93,29.93,10.0,SE,5.8,-,N/A,,Scattered Clouds,130,2012-11-08 04:53:00
11:13 PM,33.8,32.0,93,29.93,10.0,SE,5.8,-,N/A,,Mostly Cloudy,140,2012-11-08 05:13:00
11:34 PM,35.6,32.0,87,29.93,10.0,SE,4.6,-,N/A,,Overcast,140,2012-11-08 05:34:00
11:53 PM,35.6,32.0,87,29.92,10.0,SE,6.9,-,N/A,,Overcast,140,2012-11-08 05:53:00